Location: Evansville
(37.9747°N, 87.5558°W)
Time: 20:02:07
(UTC-06:00)

ARIANE 6 FM1 Upper Stage - Pass Details

Date: 17 December 2025
Orbit: 522 x 610 km, 62.0° (Epoch: 13 January)

Event Time Altitude Azimuth Distance (km) Brightness Sun altitude
Exits shadow 05:21:29 27° 227° (SW) 1,059 3.8 -18.8°
Maximum altitude 05:23:35 71° 305° (NW) 569 2.4 -18.4°
Drops below altitude 10° 05:27:34 10° 30° (NNE) 1,775 5.4 -17.7°
Sets 05:29:45 0° 33° (NNE) 2,661 6.3 -17.3°
